CCA4379 ZUCK-ZJHK

Flight info

Callsign CCA4379
Flight time N/A
Altitude 33100
Route VILUS W180 ELBAV W181 P478 H68 P479 R339 BHY W70 NYB
Aircraft A21N/M-SDE3FGHIRWYZ/EB1

Departure

Time 2026-04-27 02:27
Airport Chongqing Jiangbei International Airport (ZUCK)

Arrival

Time N/A
Airport Haikou Meilan International Airport (ZJHK)
Time Latitude Longitude Altitude Speed Heading
2026-04-27 02:12 29.71849 106.65001 1371 ft 0 kts 107°
2026-04-27 02:17 29.71851 106.64992 1372 ft 2 kts 107°
2026-04-27 02:17 29.71855 106.64976 1372 ft 2 kts 107°
2026-04-27 02:17 29.71859 106.64966 1372 ft 2 kts 107°
2026-04-27 02:18 29.71859 106.64948 1372 ft 2 kts 76°
2026-04-27 02:18 29.71853 106.64932 1372 ft 2 kts 53°
2026-04-27 02:18 29.71842 106.64920 1372 ft 2 kts 31°
2026-04-27 02:18 29.71835 106.64915 1371 ft 1 kts 18°
2026-04-27 02:19 29.71829 106.64914 1371 ft 0 kts 17°
2026-04-27 02:19 29.71828 106.64913 1371 ft 0 kts 17°
2026-04-27 02:21 29.71829 106.64914 1371 ft 0 kts 17°
2026-04-27 02:21 29.71843 106.64916 1371 ft 3 kts
2026-04-27 02:22 29.71875 106.64897 1371 ft 7 kts 307°
2026-04-27 02:22 29.71901 106.64817 1371 ft 14 kts 286°
2026-04-27 02:22 29.71834 106.64742 1371 ft 16 kts 197°
2026-04-27 02:22 29.71714 106.64700 1371 ft 18 kts 197°
2026-04-27 02:23 29.71583 106.64655 1371 ft 20 kts 197°
2026-04-27 02:23 29.71451 106.64610 1371 ft 19 kts 197°
2026-04-27 02:23 29.71321 106.64564 1371 ft 18 kts 197°
2026-04-27 02:23 29.71196 106.64522 1371 ft 18 kts 197°
2026-04-27 02:24 29.71075 106.64480 1371 ft 18 kts 197°
2026-04-27 02:24 29.70957 106.64439 1371 ft 17 kts 197°
2026-04-27 02:24 29.70840 106.64398 1371 ft 17 kts 197°
2026-04-27 02:24 29.70726 106.64359 1371 ft 16 kts 197°
2026-04-27 02:25 29.70652 106.64333 1371 ft 16 kts 197°
2026-04-27 02:25 29.70585 106.64310 1371 ft 16 kts 197°
2026-04-27 02:25 29.70517 106.64286 1371 ft 16 kts 197°
2026-04-27 02:25 29.70443 106.64243 1371 ft 6 kts 246°
2026-04-27 02:26 29.70455 106.64171 1371 ft 8 kts 287°
2026-04-27 02:26 29.70464 106.64136 1371 ft 8 kts 288°
2026-04-27 02:26 29.70490 106.64083 1371 ft 6 kts 340°
2026-04-27 02:26 29.70528 106.64087 1371 ft 11 kts 17°
2026-04-27 02:27 29.71248 106.64334 1371 ft 126 kts 17°
2026-04-27 02:27 29.72570 106.64798 1833 ft 155 kts 17°
2026-04-27 02:27 29.73592 106.65142 2494 ft 155 kts 16°
2026-04-27 02:27 29.74603 106.65471 3132 ft 155 kts 16°
2026-04-27 02:28 29.75700 106.65802 3361 ft 169 kts 17°
2026-04-27 02:28 29.76857 106.66193 3722 ft 176 kts 18°
2026-04-27 02:28 29.78072 106.66628 3997 ft 189 kts 19°
2026-04-27 02:28 29.79367 106.67102 4268 ft 203 kts 19°
2026-04-27 02:29 29.80784 106.67611 4492 ft 223 kts 19°
2026-04-27 02:29 29.82380 106.68174 4774 ft 244 kts 18°
2026-04-27 02:29 29.84053 106.68759 5148 ft 261 kts 18°
2026-04-27 02:29 29.85821 106.69375 5694 ft 270 kts 18°
2026-04-27 02:30 29.87633 106.70001 6399 ft 273 kts 18°
2026-04-27 02:30 29.89473 106.70639 7083 ft 277 kts 17°
2026-04-27 02:30 29.91323 106.71279 7740 ft 281 kts 17°
2026-04-27 02:30 29.93212 106.71934 8402 ft 285 kts 17°
2026-04-27 02:31 29.95114 106.72580 9053 ft 288 kts 13°
2026-04-27 02:31 29.97120 106.72662 9603 ft 292 kts 347°
2026-04-27 02:31 29.98965 106.71731 10189 ft 294 kts 323°
2026-04-27 02:31 30.00361 106.69968 10510 ft 305 kts 298°
2026-04-27 02:32 30.00997 106.67596 10773 ft 318 kts 275°
2026-04-27 02:32 30.01145 106.64992 11045 ft 332 kts 273°
2026-04-27 02:32 30.01294 106.62289 11300 ft 346 kts 274°
2026-04-27 02:32 30.01465 106.59500 11669 ft 354 kts 274°
2026-04-27 02:33 30.01657 106.56637 12217 ft 358 kts 275°
2026-04-27 02:33 30.01859 106.53773 12788 ft 359 kts 274°
2026-04-27 02:33 30.02058 106.50935 13301 ft 362 kts 274°
2026-04-27 02:33 30.02265 106.48023 13792 ft 366 kts 274°
2026-04-27 02:34 30.02216 106.45058 14237 ft 367 kts 258°
2026-04-27 02:34 30.01260 106.42321 14641 ft 368 kts 237°
2026-04-27 02:34 29.99521 106.40160 15091 ft 370 kts 217°
2026-04-27 02:34 29.97340 106.38607 15590 ft 371 kts 210°
2026-04-27 02:35 29.95106 106.37105 16046 ft 373 kts 211°
2026-04-27 02:35 29.92845 106.35568 16489 ft 376 kts 211°
2026-04-27 02:35 29.90579 106.34011 16927 ft 377 kts 211°
2026-04-27 02:35 29.88318 106.32449 17352 ft 379 kts 211°
2026-04-27 02:36 29.86015 106.30901 17767 ft 382 kts 208°
2026-04-27 02:36 29.83602 106.29561 18183 ft 384 kts 203°
2026-04-27 02:36 29.81113 106.28482 18568 ft 387 kts 198°
2026-04-27 02:36 29.78538 106.27573 18910 ft 389 kts 197°
2026-04-27 02:37 29.75927 106.26688 19214 ft 393 kts 197°
2026-04-27 02:37 29.73291 106.25796 19564 ft 396 kts 197°
2026-04-27 02:37 29.70620 106.24889 19924 ft 398 kts 197°
2026-04-27 02:37 29.67946 106.23978 20280 ft 400 kts 197°
2026-04-27 02:38 29.66024 106.23323 20505 ft 399 kts 198°
2026-04-27 02:38 29.64430 106.22779 20616 ft 403 kts 197°
2026-04-27 02:38 29.60673 106.22250 20927 ft 412 kts 175°
2026-04-27 02:38 29.57570 106.23280 21342 ft 415 kts 154°
2026-04-27 02:39 29.56091 106.24342 21525 ft 418 kts 143°